Tracking 29777 objects as of 4-Oct-2024
HD Live streaming from Space Station
objects crossing your sky now

INTERCOSMOS 25

Track INTERCOSMOS 25 now!
10-day predictions
INTERCOSMOS 25 is classified as:


NORAD ID: 21819
Int'l Code: 1991-086A
Perigee: 445.0 km
Apogee: 2,848.1 km
Inclination: 82.6 °
Period: 119.1 minutes
Semi major axis: 8017 km
RCS: 7.3989 m2 (large)
Launch date: December 18, 1991
Source: Commonwealth of Independent States (former USSR) (CIS)
Launch site: PLESETSK MISSILE AND SPACE COMPLEX (PKMTR)
Your satellite tracking list
Your tracking list is empty




NASA's NSSDC Master Catalog

Two Line Element Set (TLE):
1 21819U 91086A   24277.46365443  .00002708  00000-0  53283-3 0  9993
2 21819  82.5980 265.1710 1498651 160.7304 205.7338 12.09324873433481
Source of the keplerian elements: AFSPC